Retour au catalogue

STARLINK-6039

ActifCommunicationsSSO
NORAD 56319·PAYLOAD·🇺🇸 United States

Lancé Apr 27, 2023 depuis Vandenberg Space Force Base

Loading…

Prochains Passages (prochaines 24 heures)

TLE

FraisSource: CelesTrak SupGP

Époque: Sep 15, 2026, 01:52 UTC

1 56319C 23058C   26258.07826389  .00551820  00000+0  33087-1 0  2588
2 56319  97.2849 252.2797 0001639  82.8566  96.5344 15.10773119    10

Suivez STARLINK-6039 en temps réel avec AllMySat

Download on the App Store